Queralbs





Hora UTC 08:00
Temperatura -2.2 ºC
Humitat 74.0 %
Pressió 1002.0 hPa
Pluja 0.0 mm
Velocitat vent 0.0 km/h
Direcció vent NNW
Radiació solar 153.0 W/m²

Dades diàries 2019-11-15



Hora UTC (hivern +1h; estiu +2h)
Temperatura (ºC) Humitat (%) Pressió (hPa) Velocitat vent (km/h) Precipitació (mm) Radiació solar (W/m²)
Hora UTC Aire Humitat Pressió Vel. Dir. Vel. Max Dir. Intent. màx 5 min. Rad. Sol.
00:05 -1.8 75.0 999.1 0.0 NW 0.0 0.0 0.0
00:10 -1.9 75.0 999.1 1.6 NW 3.2 0.0 0.0
00:15 -2.1 75.0 999.0 0.0 NW 3.2 0.0 0.0
00:20 -2.1 75.0 998.8 3.2 NW 4.8 0.0 0.0
00:25 -2.2 75.0 999.1 1.6 NW 4.8 0.0 0.0
00:30 -2.2 75.0 998.9 3.2 NW 3.2 0.0 0.0
00:35 -2.3 75.0 999.1 1.6 NW 3.2 0.0 0.0
00:40 -2.3 74.0 999.0 1.6 NW 3.2 0.0 0.0
00:45 -2.4 74.0 999.1 3.2 NW 4.8 0.0 0.0
00:50 -2.4 75.0 999.0 1.6 NW 4.8 0.0 0.0
00:55 -2.5 74.0 999.0 1.6 NW 4.8 0.0 0.0
01:00 -2.5 74.0 998.9 0.0 NW 4.8 0.0 0.0
01:05 -2.6 74.0 998.8 0.0 NW 3.2 0.0 0.0
01:10 -2.7 74.0 999.0 0.0 NW 3.2 0.0 0.0
01:15 -2.7 74.0 999.0 0.0 NW 1.6 0.0 0.0
01:20 -2.8 74.0 999.2 1.6 NW 3.2 0.0 0.0
01:25 -2.8 74.0 999.2 0.0 NW 3.2 0.0 0.0
01:30 -2.8 74.0 999.4 1.6 NW 3.2 0.0 0.0
01:35 -2.9 74.0 999.6 0.0 NW 3.2 0.0 0.0
01:40 -2.9 74.0 999.6 0.0 NW 3.2 0.0 0.0
01:45 -3.1 74.0 999.6 0.0 NW 3.2 0.0 0.0
01:50 -3.1 74.0 999.5 1.6 NW 3.2 0.0 0.0
01:55 -3.1 74.0 999.7 3.2 NW 4.8 0.0 0.0
02:00 -3.1 75.0 999.8 3.2 W 4.8 0.0 0.0
02:05 -3.1 74.0 999.7 3.2 WNW 11.3 0.0 0.0
02:10 -3.1 74.0 999.9 0.0 WNW 11.3 0.0 0.0
02:15 -3.1 74.0 999.9 1.6 WNW 3.2 0.0 0.0
02:20 -3.1 74.0 1000.1 1.6 N 6.4 0.0 0.0
02:25 -3.2 74.0 1000.2 3.2 NNW 6.4 0.0 0.0
02:30 -3.2 74.0 1000.3 1.6 NNW 6.4 0.0 0.0
02:35 -3.2 74.0 1000.2 1.6 NW 6.4 0.0 0.0
02:40 -3.3 74.0 1000.2 0.0 NW 3.2 0.0 0.0
02:45 -3.3 74.0 1000.2 0.0 NW 1.6 0.0 0.0
02:50 -3.3 74.0 1000.2 1.6 NW 3.2 0.0 0.0
02:55 -3.4 74.0 1000.1 3.2 NW 3.2 0.0 0.0
03:00 -3.4 74.0 1000.0 0.0 NW 3.2 0.0 0.0
03:05 -3.5 74.0 1000.1 0.0 NW 3.2 0.0 0.0
03:10 -3.5 74.0 1000.0 1.6 NW 1.6 0.0 0.0
03:15 -3.5 74.0 1000.1 1.6 NW 3.2 0.0 0.0
03:20 -3.6 74.0 1000.1 0.0 NNW 4.8 0.0 0.0
03:25 -3.6 74.0 1000.1 0.0 NNW 4.8 0.0 0.0
03:30 -3.7 74.0 1000.1 1.6 NNW 4.8 0.0 0.0
03:35 -3.7 74.0 1000.1 0.0 NNW 4.8 0.0 0.0
03:40 -3.7 74.0 1000.1 0.0 NNW 1.6 0.0 0.0
03:45 -3.7 74.0 1000.1 0.0 NNW 1.6 0.0 0.0
03:50 -3.7 73.0 1000.1 1.6 NNW 1.6 0.0 0.0
03:55 -3.7 74.0 1000.1 0.0 NNW 3.2 0.0 0.0
04:00 -3.8 73.0 1000.1 1.6 NNW 3.2 0.0 0.0
04:05 -3.8 73.0 1000.1 3.2 NNW 3.2 0.0 0.0
04:10 -3.8 73.0 1000.0 1.6 NNW 3.2 0.0 0.0
04:15 -3.8 73.0 1000.0 0.0 NNW 3.2 0.0 0.0
04:20 -3.7 73.0 1000.0 0.0 NNW 1.6 0.0 0.0
04:25 -3.8 73.0 1000.2 0.0 NNW 0.0 0.0 0.0
04:30 -3.8 73.0 1000.3 0.0 NNW 0.0 0.0 0.0
04:35 -3.8 73.0 1000.1 0.0 NNW 0.0 0.0 0.0
04:40 -3.8 73.0 1000.2 0.0 NNW 0.0 0.0 0.0
04:45 -3.8 73.0 1000.2 0.0 NNW 0.0 0.0 0.0
04:50 -3.8 73.0 1000.2 0.0 NNW 0.0 0.0 0.0
04:55 -3.8 73.0 1000.2 0.0 NNW 0.0 0.0 0.0
05:00 -3.8 73.0 1000.1 0.0 NNW 0.0 0.0 0.0
05:05 -3.8 73.0 1000.0 0.0 NNW 0.0 0.0 0.0
05:10 -3.8 73.0 1000.1 0.0 NNW 0.0 0.0 0.0
05:15 -3.8 73.0 1000.1 0.0 NNW 0.0 0.0 0.0
05:20 -3.9 73.0 1000.1 0.0 NNW 0.0 0.0 0.0
05:25 -3.9 72.0 1000.1 0.0 NNW 0.0 0.0 0.0
05:30 -3.8 73.0 1000.3 0.0 NNW 0.0 0.0 0.0
05:35 -3.9 73.0 1000.2 0.0 NNW 0.0 0.0 0.0
05:40 -3.9 73.0 1000.3 0.0 NNW 0.0 0.0 0.0
05:45 -3.9 73.0 1000.3 0.0 NNW 0.0 0.0 0.0
05:50 -3.9 73.0 1000.3 0.0 NNW 0.0 0.0 0.0
05:55 -4.0 73.0 1000.3 0.0 NNW 0.0 0.0 0.0
06:00 -4.0 73.0 1000.3 0.0 NNW 0.0 0.0 0.0
06:05 -4.0 73.0 1000.4 0.0 NNW 0.0 0.0 0.0
06:10 -4.1 73.0 1000.4 0.0 NNW 0.0 0.0 0.0
06:15 -4.2 73.0 1000.5 0.0 NNW 0.0 0.0 0.0
06:20 -4.2 73.0 1000.5 0.0 NNW 0.0 0.0 0.0
06:25 -4.1 72.0 1000.4 0.0 NNW 0.0 0.0 0.0
06:30 -4.2 72.0 1000.3 0.0 NNW 0.0 0.0 0.0
06:35 -4.1 72.0 1000.3 0.0 NNW 0.0 0.0 0.0
06:40 -4.1 72.0 1000.4 0.0 NNW 0.0 0.0 0.0
06:45 -4.1 72.0 1000.6 0.0 NNW 3.2 0.0 5.0
06:50 -4.1 72.0 1000.6 1.6 NNW 3.2 0.0 7.0
06:55 -4.1 73.0 1000.8 0.0 NNW 3.2 0.0 11.0
07:00 -4.1 72.0 1000.8 1.6 NNW 3.2 0.0 12.0
07:05 -4.1 73.0 1001.0 0.0 NNW 3.2 0.0 14.0
07:10 -4.1 73.0 1001.1 0.0 NNW 1.6 0.0 16.0
07:15 -4.0 73.0 1001.4 0.0 NNW 3.2 0.0 19.0
07:20 -3.9 73.0 1001.4 0.0 NNW 3.2 0.0 21.0
07:25 -3.8 73.0 1001.6 0.0 NNW 1.6 0.0 23.0
07:30 -3.7 73.0 1001.6 0.0 NNW 1.6 0.0 26.0
07:35 -3.7 73.0 1001.5 0.0 NNW 1.6 0.0 30.0
07:40 -3.5 73.0 1001.4 0.0 NNW 3.2 0.0 62.0
07:45 -3.3 73.0 1001.7 0.0 NNW 3.2 0.0 84.0
07:50 -3.1 73.0 1001.8 1.6 NNW 3.2 0.0 97.0
07:55 -2.7 73.0 1001.8 0.0 NNW 3.2 0.0 107.0
08:00 -2.2 74.0 1002.0 0.0 NNW 1.6 0.0 153.0
Màxima -1.8 75.0 1002.0 3.2 NNW 11.3 0.0 153.0
Mínima -4.2 72.0 998.8
Total 0.0